Vorticity
nan nan nan nan nan nan nan nan nan nan nan nan nan nan nan nan nan nan nan nan nan nan nan nan nan nan nan nan nan nan nan nan nan nan nan nan nan nan
nan 9 8 8 8 8 8 9 7 7 8 9 9 8 6 8 8 9 9 7 7 4 3 6 5 3 5 6 9 11 10 8 6 8 8 6 10 nan
nan 9 9 9 9 10 10 9 9 10 10 7 9 10 8 8 9 10 10 8 10 8 4 5 3 5 7 6 5 8 9 8 8 7 7 8 7 nan
nan 9 10 10 9 9 9 9 9 9 9 9 9 10 11 10 9 9 9 9 10 7 8 6 5 5 5 7 7 6 8 9 7 7 8 8 8 nan
nan 9 9 8 9 8 7 8 9 9 9 11 10 9 10 10 10 10 9 8 7 9 9 6 5 5 7 6 7 7 6 8 9 9 9 8 7 nan
nan 7 7 7 5 6 10 9 9 10 11 11 10 10 11 11 11 11 11 11 8 12 10 8 9 12 10 10 8 9 9 8 7 9 9 10 10 nan
nan 8 8 6 9 10 8 8 9 10 9 10 10 10 9 11 10 10 10 10 10 11 11 11 13 13 14 13 9 11 11 9 9 8 7 8 10 nan
nan 9 9 12 13 13 11 9 7 6 9 9 8 8 8 9 10 9 10 9 11 12 10 10 11 10 11 12 14 11 12 13 10 6 6 9 8 nan
nan 10 11 12 11 12 12 14 13 11 10 9 9 9 9 9 10 10 9 7 10 10 10 9 11 12 12 13 12 7 9 13 12 9 6 6 7 nan
nan 11 10 9 10 9 11 12 12 14 13 9 6 4 6 7 8 11 10 10 11 10 10 10 10 11 10 11 10 8 9 11 11 11 10 7 7 nan
nan 12 9 9 7 8 13 12 11 13 15 12 11 10 10 10 5 8 14 11 10 10 10 10 9 11 11 13 13 15 14 10 9 11 9 8 7 nan
nan 13 13 10 11 13 11 13 13 11 11 17 20 19 18 17 16 8 8 10 9 10 12 11 10 10 13 12 12 16 18 17 14 11 9 10 10 nan
nan 12 15 14 12 13 15 14 9 12 15 13 13 14 18 16 17 16 10 8 9 7 10 11 9 10 8 8 11 12 15 17 15 14 14 13 10 nan
nan 15 11 10 9 15 15 11 15 19 17 14 13 13 13 12 11 13 13 10 8 7 9 9 10 11 9 9 8 10 10 12 11 10 11 13 12 nan
nan 10 10 10 14 13 11 15 19 17 14 13 12 12 12 13 14 15 15 13 12 12 12 10 10 10 9 9 9 7 10 11 10 8 10 9 11 nan
nan 12 10 12 14 13 12 14 14 12 13 13 12 13 14 16 16 14 14 14 13 14 14 14 12 10 10 10 9 10 9 7 9 9 9 8 10 nan
nan 12 10 11 11 12 12 12 12 12 13 13 13 13 14 14 15 14 13 12 12 12 13 13 12 11 12 14 15 10 9 10 8 10 8 8 9 nan
nan 10 10 10 9 10 11 11 11 11 12 13 13 13 13 14 15 13 13 12 12 11 11 12 12 11 9 8 14 18 13 13 13 11 9 10 11 nan
nan 10 10 10 10 10 11 10 10 11 12 13 12 12 12 13 16 16 14 13 12 12 13 13 13 12 10 9 6 14 21 15 13 12 14 12 12 nan
nan 10 10 10 10 10 10 11 11 11 12 12 12 12 13 12 12 13 15 15 15 15 13 13 14 13 13 15 11 3 15 25 16 14 13 9 11 nan
nan 11 10 11 11 11 11 11 11 11 11 11 12 12 12 13 12 12 12 13 15 14 12 10 10 13 15 12 11 8 4 14 22 21 17 12 9 nan
nan 10 11 11 11 11 11 11 11 11 11 11 11 12 12 12 11 12 13 13 13 13 11 10 11 13 11 13 14 11 8 5 8 7 13 18 16 nan
nan nan nan nan nan nan nan nan nan nan nan nan nan nan nan nan nan nan nan nan nan nan nan nan nan nan nan nan nan nan nan nan nan nan nan nan nan nan
CAPE
6 7 7 20 14 16 8 5 5 2 0 0 0 0 0 0 0 0 0 0 0 0 0 0 0 0 0 0 0 0 0 0 0 0 0 0 0 5
9 13 21 8 2 3 0 0 0 2 0 0 0 0 0 0 0 0 2 0 0 0 0 0 0 0 0 0 0 1 0 0 0 0 0 0 0 0
0 0 0 0 0 0 0 0 0 0 4 0 3 6 4 2 1 1 6 4 0 0 0 0 0 0 0 0 0 0 1 0 0 0 0 0 0 0
0 0 0 0 0 0 0 1 4 6 13 14 7 12 21 13 14 23 17 12 17 3 0 0 0 0 0 0 0 0 0 0 0 0 0 0 0 0
0 0 0 0 0 0 0 0 0 1 5 11 7 4 9 9 5 7 13 19 6 0 0 0 0 0 0 0 0 0 0 1 0 0 0 0 1 1
0 0 0 0 0 0 0 0 0 1 3 6 5 3 4 5 10 12 13 17 8 0 0 0 0 0 0 0 0 0 0 0 0 0 0 0 0 0
0 0 0 0 0 0 2 3 8 10 10 12 13 12 12 14 13 16 19 22 18 13 8 3 2 2 0 0 0 0 0 1 0 0 0 0 0 0
1 0 1 0 0 0 3 6 11 14 12 16 14 15 11 12 13 17 23 23 16 21 24 13 7 6 5 5 0 0 0 0 0 0 0 0 0 0
3 2 1 0 4 9 7 3 2 5 4 17 20 27 21 16 12 22 24 29 26 22 31 29 27 33 32 24 2 0 0 0 0 0 0 0 0 0
6 3 8 9 10 8 4 12 15 21 19 19 17 15 19 19 20 33 30 27 33 25 35 33 48 56 35 44 9 0 0 0 0 0 0 0 0 0
9 12 13 11 6 9 14 23 37 24 14 7 8 29 22 16 22 45 59 68 48 21 21 26 41 47 32 57 36 0 0 0 0 0 0 0 1 0
14 16 6 6 3 10 36 32 32 21 15 34 25 22 22 32 21 69 80 59 38 34 15 33 25 22 28 42 17 11 7 0 0 0 0 1 0 4
24 19 19 9 10 6 7 19 17 17 20 23 22 23 21 23 28 38 61 93 62 48 18 23 22 30 32 31 10 15 6 8 12 1 0 2 0 2
23 24 39 3 4 2 4 5 8 8 12 10 12 14 15 20 18 16 25 39 63 37 30 22 47 36 38 35 26 9 6 9 8 6 9 1 0 0
23 6 2 3 2 0 1 2 2 10 10 11 11 9 15 17 20 34 27 22 24 40 21 35 62 34 44 59 26 20 22 15 7 12 16 6 2 2
16 12 6 4 0 2 6 4 8 11 10 10 9 7 9 17 22 23 28 29 37 27 28 16 21 28 55 36 18 25 29 30 8 11 10 11 5 2
12 8 5 4 5 5 9 7 7 6 8 9 9 9 10 11 10 16 20 27 32 25 34 30 17 9 38 58 54 28 27 26 27 27 5 9 15 9
6 5 4 5 8 7 11 10 9 6 5 6 7 8 9 7 5 6 10 21 29 29 26 25 31 41 19 3 2 21 20 21 23 19 8 11 15 11
5 4 4 4 7 7 8 9 11 10 6 6 7 7 7 9 10 3 4 10 17 22 27 20 17 16 15 15 3 1 9 15 15 11 8 5 12 6
4 4 3 4 5 4 5 6 9 11 9 7 6 6 7 9 10 9 8 5 8 6 5 5 9 13 16 16 8 5 1 7 9 15 11 8 6 0
3 3 4 3 3 4 7 6 10 12 11 11 10 6 6 7 8 7 8 1 1 5 5 5 4 0 2 4 7 7 11 3 4 11 8 10 7 3
4 3 3 3 4 5 8 7 8 11 9 9 9 11 9 7 9 9 9 10 7 8 6 5 4 4 5 5 6 6 7 8 2 1 0 2 9 8
2 2 3 4 4 5 4 7 5 8 7 6 10 11 10 7 8 11 12 8 7 6 4 4 2 1 1 3 2 4 4 4 6 9 7 0 0 0